STARLINK-35226

Last updated on Mon Oct 06 2025 00:02:05 GMT+0000 (Coordinated Universal Time)

1 65492U 25198A 25278.50001156 .00120916 00000+0 21548-2 0 9993 2 65492 53.1586 280.5112 0001117 82.3114 66.0431 15.49227322 5376

Satellite not in orbit

STARLINK-35226